TimeCDT,TemperatureF,Dew PointF,Humidity,Sea Level PressureIn,VisibilityMPH,Wind Direction,Wind SpeedMPH,Gust SpeedMPH,PrecipitationIn,Events,Conditions,WindDirDegrees,DateUTC
12:55 AM,66.9,60.1,79,30.01,10.0,Calm,Calm,-,N/A,,Clear,0,2012-10-03 05:55:00
1:55 AM,64.9,60.1,84,30.01,6.0,Calm,Calm,-,N/A,,Haze,0,2012-10-03 06:55:00
2:55 AM,66.9,60.1,79,30.00,10.0,Calm,Calm,-,N/A,,Clear,0,2012-10-03 07:55:00
3:55 AM,66.9,60.1,79,30.00,10.0,Calm,Calm,-,N/A,,Clear,0,2012-10-03 08:55:00
4:55 AM,69.1,61.0,75,30.01,10.0,Calm,Calm,-,N/A,,Clear,0,2012-10-03 09:55:00
5:55 AM,66.9,61.0,81,30.02,10.0,Calm,Calm,-,N/A,,Clear,0,2012-10-03 10:55:00
6:13 AM,66.2,60.8,83,30.02,7.0,East,3.5,-,N/A,,Scattered Clouds,80,2012-10-03 11:13:00
6:55 AM,66.9,62.1,84,30.03,7.0,East,4.6,-,N/A,Fog,Shallow Fog,100,2012-10-03 11:55:00
7:55 AM,70.7,64.9,82,30.05,10.0,East,5.8,-,N/A,,Mostly Cloudy,100,2012-10-03 12:55:00
8:55 AM,73.2,66.0,78,30.07,10.0,East,3.5,-,N/A,,Mostly Cloudy,100,2012-10-03 13:55:00
9:55 AM,76.6,64.0,65,30.09,10.0,ESE,10.4,-,N/A,,Scattered Clouds,120,2012-10-03 14:55:00
11:55 AM,80.6,64.0,57,30.09,10.0,ESE,11.5,-,N/A,,Scattered Clouds,120,2012-10-03 16:55:00
12:55 PM,98.1,64.0,33,30.08,10.0,ESE,9.2,-,N/A,,Scattered Clouds,120,2012-10-03 17:55:00
1:55 PM,82.0,64.0,54,30.06,10.0,SE,8.1,-,N/A,,Scattered Clouds,140,2012-10-03 18:55:00
2:55 PM,80.1,64.9,60,30.05,10.0,ESE,11.5,-,N/A,,Scattered Clouds,110,2012-10-03 19:55:00
3:55 PM,78.8,64.0,60,30.05,10.0,SE,11.5,-,N/A,,Scattered Clouds,130,2012-10-03 20:55:00
4:55 PM,78.1,64.0,62,30.06,10.0,ESE,10.4,-,N/A,,Scattered Clouds,120,2012-10-03 21:55:00
5:55 PM,77.5,64.0,63,30.07,10.0,SE,9.2,-,N/A,,Scattered Clouds,130,2012-10-03 22:55:00
6:55 PM,75.6,64.0,67,30.08,10.0,ESE,5.8,-,N/A,,Scattered Clouds,120,2012-10-03 23:55:00
7:55 PM,75.2,64.9,70,30.09,10.0,ESE,3.5,-,N/A,,Scattered Clouds,110,2012-10-04 00:55:00
8:55 PM,74.7,64.9,72,30.11,10.0,East,3.5,-,N/A,,Clear,90,2012-10-04 01:55:00
9:55 PM,72.0,64.9,78,30.12,10.0,Calm,Calm,-,N/A,,Clear,0,2012-10-04 02:55:00
10:55 PM,71.1,64.9,81,30.13,10.0,Calm,Calm,-,N/A,,Clear,0,2012-10-04 03:55:00
11:55 PM,70.0,63.0,78,30.13,10.0,Calm,Calm,-,N/A,,Clear,0,2012-10-04 04:55:00